Location: Ay?beleni
(36.6500°N, 30.3000°E)
Time: 00:35:06
(UTC+00:00)

Cosmos 2237 Rocket - Pass Details

Date: 09 April 2020
Orbit: 833 x 851 km, 71.0° (Epoch: 06 June)

Event Time Altitude Azimuth Distance (km) Brightness Sun altitude
Rises 23:41:43 0° 344° (NNW) 3,409 5.8 -39.4°
Reaches altitude 10° 23:44:16 10° 350° (N) 2,473 5.0 -39.1°
Enters shadow 23:46:22 22° 0° (N) 1,758 4.2 -38.8°
